Weather in Prince Rupert

Canada     54°18′23″N   130°19′14″W
temp.,
°C
wind,
m/s
gust,
m/s
humid.,
%
clouds,
%
prec.,
mm/h
press.,
hPa
HPBL,
m
17 may, mon
mon1723:00+4nnw11835 0.0 1014131
02:00+3ene11885 0.0 101268
05:00+3ne11896 0.0 101257
08:00+6sse117782 0.0 1011225
11:00+9sw226480 0.0 10101039
14:00+9wsw336051 0.1 10111148
17:00+9w326074 0.2 1010924
20:00+8wnw3366100 0.0 1009686
18 may, tue
tue1823:00+5nw1181100 0.0 1009151
02:00+4e1184100 0.0 100984
05:00+5se1184100 0.1 1010108
08:00+5se1294100 3.3 1011227
11:00+5sse2294100 5.4 1014318
14:00+6sse2290100 0.4 1016424
17:00+7sse2384100 0.6 1018599
20:00+7sse1288100 0.3 1018344
19 may, wed
wed1923:00+6ssw1293100 0.8 1019176
02:00+6sse1194100 0.4 1020120
05:00+6sse129395 0.6 102195
08:00+7se228778 0.1 1022232
11:00+9s217790 0.1 1022586
14:00+9wsw227976 0.0 1023510
17:00+11wsw227163 0.1 1022876
20:00+9w228255 0.0 1023340
20 may, thu
thu2023:00+6sw1296100 0.0 102385
02:00+6s129299 0.0 1023265
05:00+6sse1190100 0.0 1022186
08:00+8se1182100 0.0 1022245
11:00+11wsw2168100 0.0 1022598
14:00+12wsw3267100 0.0 1022764
17:00+11wsw227156 0.0 1022619
20:00+9w118091 0.0 1022272
21 may, fri
fri2123:00+7s1192100 0.0 102227
02:00+7ene1189100 0.0 102225
05:00+8e118490 0.0 102112
08:00+10se2271100 0.0 1020113
11:00+11sse2372100 0.0 1019136
14:00+10sse2389100 1.3 1019120
17:00+9ese3492100 7.3 1018372
20:00+8ese2394100 6.9 1018241